| time (UTC) | temp F | wind direction | speed MPH | gust MPH | rain 1hr in | rain 24hr in | rain mn in | humidity % | barometer mb |
| 20260509194556 | 86 | 213 | 6.0 | 14.0 | 0.00 | 0.00 | 0.00 | 24 | 1015.0 |
| 20260509193057 | 85 | 255 | 5.0 | 11.0 | 0.00 | 0.00 | 0.00 | 19 | 1015.2 |
| 20260509191556 | 85 | 279 | 5.0 | 12.0 | 0.00 | 0.00 | 0.00 | 24 | 1015.2 |
| 20260509190111 | 84 | 275 | 5.0 | 11.0 | 0.00 | 0.00 | 0.00 | 26 | 1015.3 |
| 20260509184557 | 83 | 252 | 5.0 | 10.0 | 0.00 | 0.00 | 0.00 | 25 | 1015.5 |
| 20260509183059 | 83 | 216 | 4.0 | 11.0 | 0.00 | 0.00 | 0.00 | 28 | 1015.5 |
| 20260509181553 | 83 | 246 | 5.0 | 9.0 | 0.00 | 0.00 | 0.00 | 26 | 1015.5 |
| 20260509174555 | 82 | 211 | 5.0 | 11.0 | 0.00 | 0.00 | 0.00 | 27 | 1015.7 |
| 20260509173056 | 83 | 246 | 4.0 | 8.0 | 0.00 | 0.00 | 0.00 | 28 | 1015.8 |
| 20260509171555 | 82 | 225 | 3.0 | 8.0 | 0.00 | 0.00 | 0.00 | 28 | 1015.8 |
| 20260509170100 | 83 | 218 | 2.0 | 8.0 | 0.00 | 0.00 | 0.00 | 30 | 1015.8 |
| 20260509164551 | 83 | 238 | 3.0 | 8.0 | 0.00 | 0.00 | 0.00 | 32 | 1015.7 |
| 20260509163103 | 82 | 223 | 1.0 | 6.0 | 0.00 | 0.00 | 0.00 | 31 | 1015.7 |
| 20260509161557 | 79 | 217 | 4.0 | 8.0 | 0.00 | 0.00 | 0.00 | 35 | 1015.7 |
| 20260509160055 | 76 | 218 | 0.0 | 5.0 | 0.00 | 0.00 | 0.00 | 42 | 1015.7 |
| 20260509154606 | 74 | 0 | 0.0 | 1.0 | 0.00 | 0.00 | 0.00 | 46 | 1015.8 |
| 20260509153056 | 70 | 0 | 0.0 | 2.0 | 0.00 | 0.00 | 0.00 | 49 | 1015.7 |
| 20260509151554 | 65 | 79 | 0.0 | 2.0 | 0.00 | 0.00 | 0.00 | 56 | 1015.8 |
| 20260509150108 | 60 | 0 | 0.0 | 1.0 | 0.00 | 0.00 | 0.00 | 62 | 1015.9 |
| 20260509144602 | 56 | 0 | 0.0 | 3.0 | 0.00 | 0.00 | 0.00 | 69 | 1015.9 |
| 20260509143105 | 51 | 0 | 0.0 | 1.0 | 0.00 | 0.00 | 0.00 | 79 | 1015.9 |
| 20260509141555 | 48 | 78 | 1.0 | 4.0 | 0.00 | 0.00 | 0.00 | 83 | 1016.1 |
| 20260509140104 | 44 | 78 | 1.0 | 5.0 | 0.00 | 0.00 | 0.00 | 86 | 1015.8 |
| 20260509134553 | 41 | 0 | 0.0 | 3.0 | 0.00 | 0.00 | 0.00 | 88 | 1015.8 |
| 20260509133101 | 39 | 0 | 0.0 | 3.0 | 0.00 | 0.00 | 0.00 | 87 | 1015.8 |
| 20260509131549 | 38 | 74 | 1.0 | 5.0 | 0.00 | 0.00 | 0.00 | 87 | 1015.8 |
| 20260509130056 | 38 | 82 | 2.0 | 4.0 | 0.00 | 0.00 | 0.00 | 86 | 1015.7 |
| 20260509124558 | 38 | 0 | 0.0 | 0.0 | 0.00 | 0.00 | 0.00 | 85 | 1015.6 |
| 20260509123101 | 39 | 0 | 0.0 | 1.0 | 0.00 | 0.00 | 0.00 | 85 | 1015.7 |
| 20260509121600 | 40 | 0 | 0.0 | 3.0 | 0.00 | 0.00 | 0.00 | 86 | 1015.7 |
| 20260509120053 | 40 | 0 | 0.0 | 3.0 | 0.00 | 0.00 | 0.00 | 87 | 1015.6 |
| 20260509114603 | 39 | 0 | 0.0 | 1.0 | 0.00 | 0.00 | 0.00 | 85 | 1015.6 |
| 20260509113059 | 41 | 0 | 0.0 | 2.0 | 0.00 | 0.00 | 0.00 | 85 | 1015.6 |
| 20260509111551 | 42 | 80 | 0.0 | 3.0 | 0.00 | 0.00 | 0.00 | 86 | 1015.8 |
| 20260509110245 | 42 | 0 | 1.0 | 4.0 | 0.00 | 0.00 | 0.00 | 88 | 1015.7 |
| 20260509104552 | 42 | 76 | 1.0 | 4.0 | 0.00 | 0.00 | 0.00 | 89 | 1015.8 |
| 20260509103051 | 40 | 73 | 1.0 | 3.0 | 0.00 | 0.00 | 0.00 | 84 | 1015.9 |
| 20260509101811 | 41 | 0 | 0.0 | 0.0 | 0.00 | 0.00 | 0.00 | 84 | 1016.0 |
| 20260509100057 | 42 | 0 | 0.0 | 0.0 | 0.00 | 0.00 | 0.00 | 84 | 1016.0 |
| 20260509094634 | 43 | 0 | 0.0 | 1.0 | 0.00 | 0.00 | 0.00 | 83 | 1016.1 |
| 20260509093056 | 45 | 0 | 0.0 | 1.0 | 0.00 | 0.00 | 0.00 | 85 | 1016.1 |
| 20260509091606 | 45 | 73 | 1.0 | 3.0 | 0.00 | 0.00 | 0.00 | 87 | 1016.3 |
| 20260509090124 | 44 | 72 | 1.0 | 4.0 | 0.00 | 0.00 | 0.00 | 87 | 1016.3 |
| 20260509084605 | 43 | 0 | 0.0 | 2.0 | 0.00 | 0.00 | 0.00 | 83 | 1016.5 |
| 20260509083058 | 44 | 0 | 0.0 | 1.0 | 0.00 | 0.00 | 0.00 | 83 | 1016.6 |
| 20260509081604 | 45 | 0 | 0.0 | 2.0 | 0.00 | 0.00 | 0.00 | 83 | 1016.6 |
| 20260509080111 | 46 | 0 | 0.0 | 2.0 | 0.00 | 0.00 | 0.00 | 84 | 1016.7 |
| 20260509074558 | 47 | 0 | 0.0 | 2.0 | 0.00 | 0.00 | 0.00 | 84 | 1016.8 |
| 20260509073107 | 47 | 69 | 0.0 | 1.0 | 0.00 | 0.00 | 0.00 | 82 | 1016.8 |
| 20260509071556 | 48 | 0 | 0.0 | 2.0 | 0.00 | 0.00 | 0.00 | 82 | 1016.8 |
| 20260509070058 | 48 | 0 | 0.0 | 2.0 | 0.00 | 0.00 | 0.00 | 82 | 1016.9 |
| 20260509064552 | 49 | 0 | 0.0 | 2.0 | 0.00 | 0.00 | 0.00 | 79 | 1017.0 |
| 20260509063114 | 50 | 0 | 0.0 | 2.0 | 0.00 | 0.00 | 0.00 | 79 | 1017.1 |
| 20260509061559 | 51 | 69 | 1.0 | 4.0 | 0.00 | 0.00 | 0.00 | 82 | 1017.1 |
| 20260509060057 | 51 | 74 | 2.0 | 3.0 | 0.00 | 0.00 | 0.00 | 81 | 1017.2 |
| 20260509054555 | 51 | 74 | 1.0 | 5.0 | 0.00 | 0.00 | 0.00 | 79 | 1017.1 |
| 20260509053059 | 52 | 5 | 0.0 | 2.0 | 0.00 | 0.00 | 0.00 | 78 | 1017.2 |
| 20260509051602 | 53 | 0 | 1.0 | 3.0 | 0.00 | 0.00 | 0.00 | 78 | 1017.3 |
| 20260509050101 | 55 | 0 | 0.0 | 0.0 | 0.00 | 0.00 | 0.00 | 77 | 1017.3 |
| 20260509044554 | 56 | 0 | 0.0 | 0.0 | 0.00 | 0.00 | 0.00 | 75 | 1017.2 |
| 20260509043056 | 58 | 0 | 0.0 | 0.0 | 0.00 | 0.00 | 0.00 | 73 | 1017.1 |
| 20260509041556 | 60 | 249 | 0.0 | 1.0 | 0.00 | 0.00 | 0.00 | 74 | 1017.0 |
| 20260509040056 | 61 | 249 | 1.0 | 3.0 | 0.00 | 0.00 | 0.00 | 74 | 1016.7 |
| 20260509034559 | 62 | 249 | 1.0 | 3.0 | 0.00 | 0.00 | 0.00 | 72 | 1016.6 |
| 20260509033110 | 63 | 0 | 0.0 | 2.0 | 0.00 | 0.00 | 0.00 | 68 | 1016.6 |
| 20260509031556 | 65 | 0 | 0.0 | 4.0 | 0.00 | 0.00 | 0.00 | 68 | 1016.3 |
| 20260509024603 | 68 | 312 | 3.0 | 9.0 | 0.00 | 0.00 | 0.00 | 63 | 1016.0 |
| 20260509023059 | 71 | 254 | 3.0 | 7.0 | 0.00 | 0.00 | 0.00 | 59 | 1015.7 |
| 20260509021558 | 73 | 272 | 1.0 | 5.0 | 0.00 | 0.00 | 0.00 | 54 | 1015.6 |
| 20260509020057 | 76 | 256 | 2.0 | 7.0 | 0.00 | 0.00 | 0.00 | 49 | 1015.4 |
| 20260509014554 | 79 | 261 | 3.0 | 9.0 | 0.00 | 0.00 | 0.00 | 44 | 1015.4 |
| 20260509013103 | 81 | 254 | 3.0 | 13.0 | 0.00 | 0.00 | 0.00 | 38 | 1015.4 |
| 20260509011605 | 82 | 294 | 2.0 | 14.0 | 0.00 | 0.00 | 0.00 | 25 | 1015.3 |
| 20260509010057 | 83 | 332 | 3.0 | 14.0 | 0.00 | 0.00 | 0.00 | 24 | 1015.2 |
| 20260509004600 | 83 | 313 | 8.0 | 14.0 | 0.00 | 0.00 | 0.00 | 23 | 1015.2 |
| 20260509003102 | 83 | 352 | 7.0 | 16.0 | 0.00 | 0.00 | 0.00 | 22 | 1015.1 |
| 20260509001556 | 83 | 317 | 6.0 | 17.0 | 0.00 | 0.00 | 0.00 | 21 | 1015.2 |
| 20260509000100 | 84 | 326 | 9.0 | 18.0 | 0.00 | 0.00 | 0.00 | 21 | 1015.2 |
| 20260508234556 | 84 | 321 | 7.0 | 18.0 | 0.00 | 0.00 | 0.00 | 22 | 1015.3 |
| 20260508233054 | 85 | 315 | 10.0 | 17.0 | 0.00 | 0.00 | 0.00 | 18 | 1015.2 |
| 20260508231556 | 85 | 336 | 8.0 | 18.0 | 0.00 | 0.00 | 0.00 | 19 | 1015.3 |
| 20260508230055 | 86 | 352 | 6.0 | 17.0 | 0.00 | 0.00 | 0.00 | 18 | 1015.4 |
| 20260508224609 | 86 | 351 | 9.0 | 18.0 | 0.00 | 0.00 | 0.00 | 17 | 1015.4 |
| 20260508223052 | 86 | 347 | 9.0 | 17.0 | 0.00 | 0.00 | 0.00 | 17 | 1015.6 |
| 20260508221607 | 86 | 334 | 10.0 | 20.0 | 0.00 | 0.00 | 0.00 | 20 | 1015.8 |
| 20260508220056 | 86 | 340 | 9.0 | 19.0 | 0.00 | 0.00 | 0.00 | 18 | 1016.1 |
| 20260508214554 | 86 | 343 | 10.0 | 19.0 | 0.00 | 0.00 | 0.00 | 18 | 1016.1 |
| 20260508213052 | 86 | 304 | 8.0 | 21.0 | 0.00 | 0.00 | 0.00 | 20 | 1016.3 |
| 20260508211556 | 86 | 330 | 9.0 | 19.0 | 0.00 | 0.00 | 0.00 | 19 | 1016.3 |
| 20260508210057 | 86 | 21 | 10.0 | 21.0 | 0.00 | 0.00 | 0.00 | 18 | 1016.3 |
| 20260508204554 | 86 | 322 | 7.0 | 18.0 | 0.00 | 0.00 | 0.00 | 19 | 1016.5 |
| 20260508203101 | 86 | 340 | 9.0 | 21.0 | 0.00 | 0.00 | 0.00 | 20 | 1016.4 |
| 20260508201555 | 86 | 348 | 10.0 | 16.0 | 0.00 | 0.00 | 0.00 | 20 | 1016.4 |